DELTA 1 DEB, 40762

Orbit data source: Space-Track

DELTA 1 DEB, 40762 is space debris in LEO originally from a launch on Thu, 29 Jul 1976 UTC launched from the Air Force Western Test Range (AFWTR). Debris objects in space refer to the collection of defunct objects orbiting the Earth. Examples of debris include non-operational satellites, rocket bodies, and fragments generated from explosions, collisions, or faulty payload assembly.

Loading next visibility...
Identifier
40762, 1976-077GF
Orbit
LEO
Country
Flag of USUS
Related business
Manufacturer
Unknown
Mission
Spacecraft
Bus & Motor
Unknown
Mass
Unknown
Launch date (UTC)
1976-07-29 (50 years ago)
Launch vehicle
Unknown
Launch site
Air Force Western Test Range (AFWTR)
Object type
Payload
Rocket body
Debris
Shape & HBR
Unknown shape, 1.1 m
Radar Cross Section
Small (<0.1 m²)

Expand to show TLE details & history
Last TLE update: 2 days ago

TLE from 2 days ago
0 DELTA 1 DEB
1 40762U 76077GF  26104.29300007 -.00000241  00000-0 -26475-2 0  9995
2 40762 102.3608 224.4543 0331106 140.6543 221.9047 11.83437376532482
Epoch: 2026-04-14T07:01Z
TLE epoch observation values (Epoch: 2026-04-14T07:01:55.206Z)
Latitude
-0°
Longitude
-83.49706°
Altitude
1,962.65 km
Speed
6.827 km/s
True Right ascension
14h 57m 49s
True Declination
0° 00' 00"
Sunlit
Object was in full shadow at epoch
Visualization orbit readout
Latitude
Unknown
Longitude
Unknown
Altitude
Unknown
Speed
Unknown
Apparent Right ascension
Unknown
Apparent Declination
Unknown
Sunlit
N/A
Visualization observer readout
Local Sidereal Time
18:03:08
Azimuth
Unknown
Elevation
Unknown
Doppler factor
Unknown
Orbital elements
Apogee altitude
2,022.79 km
Perigee altitude
1,484.3 km
Semi-major axis
8,131.682 km
Eccentricity
0.03311
Inclination
102.3608°
RAAN
224.4543°
Arg. of periapsis
140.6543°
True anomaly
219.44715°
Mean anomaly
221.9047°
Eccentric anomaly
220.6684°
Mean motion
2.95987 °/min
Orbital period
121.63 mins
BSTAR
-0.0026475
Loading maneuver chart data...
Computing Atmospheric mass density...
Loading historical data...
Loading historical data...
Loading historical data...
Loading historical data...
Loading historical data...
Loading historical data...
Loading historical data...

Documentation

Showing up to 5 results
|